WetterOnline ( https://www.wetteronline.de )

Wetter aktuell Südlohn

Aktuelles Wetter: Ahaus (46m)

6-stündlich | Neueste Meldungen
Ortszeit Temperatur Wetter
Fr, 05.03. 1:00 3.2° C bedeckt
Do, 04.03. 19:00 4.5° C bedeckt
Do, 04.03. 13:00 3.1° C bedeckt
Do, 04.03. 7:00 2.4° C bedeckt
Do, 04.03. 1:00 3.0° C Nebel
Mi, 03.03. 19:00 8.8° C fast wolkenlos
Mi, 03.03. 13:00 12.7° C bedeckt
Mi, 03.03. 7:00 2.7° C wolkig
Ortszeit Temperatur Wetter
Fr, 05.03. 2:30 1.2° C wolkenlos
Fr, 05.03. 2:20 1.2° C wolkenlos
Fr, 05.03. 2:10 1.5° C fast wolkenlos
Fr, 05.03. 2:00 2.0° C wolkig
Fr, 05.03. 1:50 2.0° C wolkig
Fr, 05.03. 1:40 2.4° C bedeckt
Fr, 05.03. 1:30 3.0° C bedeckt
Fr, 05.03. 1:00 3.2° C bedeckt
Fr, 05.03. 0:30 3.4° C bedeckt
Fr, 05.03. 0:00 3.4° C bedeckt
Do, 04.03. 23:30 3.2° C bedeckt
Ortszeit Relative Feuchte Sichtweite
Fr, 05.03. 1:00 78% 30 km
Do, 04.03. 19:00 74% 35 km
Do, 04.03. 13:00 93% 10 km
Do, 04.03. 7:00 97% 2.0 km
Do, 04.03. 1:00 99% 0.2 km
Mi, 03.03. 19:00 78% 10 km
Mi, 03.03. 13:00 59% 11 km
Mi, 03.03. 7:00 87% 15 km
Ortszeit Relative Feuchte Sichtweite
Fr, 05.03. 2:30 80% 40 km
Fr, 05.03. 2:20 80% -
Fr, 05.03. 2:10 80% -
Fr, 05.03. 2:00 79% 40 km
Fr, 05.03. 1:50 79% -
Fr, 05.03. 1:40 79% -
Fr, 05.03. 1:30 78% 35 km
Fr, 05.03. 1:00 78% 30 km
Fr, 05.03. 0:30 81% 24 km
Fr, 05.03. 0:00 86% 18 km
Do, 04.03. 23:30 86% 15 km
Ortszeit Niederschlagsmenge Niederschlagsart
Fr, 05.03. 1:00 0.1 l/m2 in 6 Std. Regen
Do, 04.03. 19:00 0.1 l/m2 in 12 Std. Regen
Do, 04.03. 13:00 0.1 l/m2 in 6 Std. Regen
Do, 04.03. 7:00 0.1 l/m2 in 12 Std. Regen
Do, 04.03. 1:00 0.0 l/m2 in 6 Std. -
Mi, 03.03. 19:00 0.0 l/m2 in 12 Std. -
Mi, 03.03. 13:00 0.0 l/m2 in 6 Std. -
Mi, 03.03. 7:00 0.0 l/m2 in 3 Std. -
Ortszeit Niederschlagsmenge Niederschlagsart
Fr, 05.03. 2:30 0.0 l/m2 in 1 Std. -
Fr, 05.03. 2:20 keine Meldung -
Fr, 05.03. 2:10 keine Meldung -
Fr, 05.03. 2:00 0.0 l/m2 in 1 Std. -
Fr, 05.03. 1:50 keine Meldung -
Fr, 05.03. 1:40 keine Meldung -
Fr, 05.03. 1:30 0.0 l/m2 in 1 Std. -
Fr, 05.03. 1:00 0.0 l/m2 in 1 Std. Regen
Fr, 05.03. 0:30 0.0 l/m2 in 1 Std. -
Fr, 05.03. 0:00 0.1 l/m2 in 1 Std. Regen
Do, 04.03. 23:30 0.1 l/m2 in 1 Std. Schneeregen
Ortszeit Stärke Spitze Richtung
km/h Bft. km/h Grad Sektor
Fr, 05.03. 1:00 18 3 29 20° N
Do, 04.03. 19:00 14 3 29 340° N
Do, 04.03. 13:00 13 3 17 350° N
Do, 04.03. 7:00 7 2 18 350° N
Do, 04.03. 1:00 11 2 14 310° NW
Mi, 03.03. 19:00 7 2 25 340° N
Mi, 03.03. 13:00 11 2 20 260° W
Mi, 03.03. 7:00 4 1 7 200° S
Ortszeit Stärke Spitze Richtung
km/h Bft. km/h Grad Sektor
Fr, 05.03. 2:30 11 2 22 10° N
Fr, 05.03. 2:20 11 2 - 10° N
Fr, 05.03. 2:10 13 3 - 10° N
Fr, 05.03. 2:00 14 3 29 10° N
Fr, 05.03. 1:50 14 3 - 10° N
Fr, 05.03. 1:40 15 3 - 10° N
Fr, 05.03. 1:30 14 3 29 10° N
Fr, 05.03. 1:00 18 3 29 20° N
Fr, 05.03. 0:30 17 3 26 20° N
Fr, 05.03. 0:00 13 3 22 350° N
Do, 04.03. 23:30 13 3 20 340° N
Ortszeit Untergrenze Bedeckung Gattung
total tief tief mittel hoch
Fr, 05.03. 1:00 480 m 8/8 8/8 - - -
Do, 04.03. 19:00 690 m 8/8 8/8 - - -
Do, 04.03. 13:00 150 m 8/8 8/8 - - -
Do, 04.03. 7:00 30 m 8/8 8/8 - - -
Do, 04.03. 1:00 <30 m 8/8 0/8 - - -
Mi, 03.03. 19:00 7200 m 1/8 0/8 - - -
Mi, 03.03. 13:00 3000 m 8/8 8/8 - - -
Mi, 03.03. 7:00 8100 m 7/8 0/8 - - -
Ortszeit Bedeckungsgrad in Achtel und Wolkenuntergrenze
Fr, 05.03. 2:30 keine Wolken
Fr, 05.03. 2:20 keine Wolken
Fr, 05.03. 2:10 1(720m)
Fr, 05.03. 2:00 6(690m) 6(960m)
Fr, 05.03. 1:50 6(690m) 6(960m)
Fr, 05.03. 1:40 8(660m) 8(990m)
Fr, 05.03. 1:30 8(600m) 8(1020m)
Fr, 05.03. 1:00 8(480m)
Fr, 05.03. 0:30 8(360m)
Fr, 05.03. 0:00 8(300m)
Do, 04.03. 23:30 8(330m)
Ortszeit Luftdruck NN (hPa) Tendenz (hPa in 3 Std.)
Fr, 05.03. 1:00 1023 + 1,4
Do, 04.03. 19:00 1020 + 0,3
Do, 04.03. 13:00 1021 - 0,5
Do, 04.03. 7:00 1022 - 1,1
Do, 04.03. 1:00 1025 - 0,7
Mi, 03.03. 19:00 1026 - 0,4
Mi, 03.03. 13:00 1027 - 0,8
Mi, 03.03. 7:00 1028 - 0,5
Ortszeit Luftdruck NN (hPa) Tendenz (hPa in 3 Std.)
Fr, 05.03. 2:30 1024 + 1,9
Fr, 05.03. 2:20 1024 keine Meldung
Fr, 05.03. 2:10 1024 keine Meldung
Fr, 05.03. 2:00 1024 + 1,8
Fr, 05.03. 1:50 1024 keine Meldung
Fr, 05.03. 1:40 1024 keine Meldung
Fr, 05.03. 1:30 1023 + 1,7
Fr, 05.03. 1:00 1023 + 1,4
Fr, 05.03. 0:30 1023 + 1,3
Fr, 05.03. 0:00 1022 + 1,3
Do, 04.03. 23:30 1022 + 1,3
Ortszeit Schneehöhe (cm)
Fr, 05.03. 1:00 0
Do, 04.03. 19:00 0
Do, 04.03. 13:00 0
Do, 04.03. 7:00 0
Do, 04.03. 1:00 0
Mi, 03.03. 19:00 0
Mi, 03.03. 13:00 0
Mi, 03.03. 7:00 0
Ortszeit Schneehöhe (cm)
Fr, 05.03. 2:30 0
Fr, 05.03. 2:20 0
Fr, 05.03. 2:10 0
Fr, 05.03. 2:00 0
Fr, 05.03. 1:50 0
Fr, 05.03. 1:40 0
Fr, 05.03. 1:30 0
Fr, 05.03. 1:00 0
Fr, 05.03. 0:30 0
Fr, 05.03. 0:00 0
Do, 04.03. 23:30 0
Link zu dieser Seite / Seite empfehlen

Das Wetter in ...